Location: Czekanka
(50.4925°N, 19.2643°E)
Time: 02:06:39
(UTC+00:00)

ADEOS II - Pass Details

Date: 21 September 2024
Orbit: 795 x 798 km, 98.7° (Epoch: 09 October)

Event Time Altitude Azimuth Distance (km) Brightness Sun altitude
Rises 00:29:37 0° 21° (NNE) 3,311 6.3 -33.5°
Reaches altitude 10° 00:32:09 10° 30° (NNE) 2,376 5.4 -33.3°
Enters shadow 00:36:30 35° 85° (E) 1,277 3.3 -32.8°
